Weather History for Athens, OH

Change the Weather History Date:

Thursday, February 7, 2013

  Actual Average (KPKB) Record (KPKB)
Temperature  
Mean Temperature 38 °F 33 °F  
Max Temperature 54 °F 42 °F 65 °F (1925)
Min Temperature 22 °F 24 °F -2 °F (1907)
Degree Days  
Heating Degree Days 27 32  
Since 1 July heating degree days 3171  
Moisture  
Dew Point 29 °F    
Average Humidity 70    
Maximum Humidity 93    
Minimum Humidity 41    
Precipitation  
Precipitation 0.00 in 0.10 in 0.76 in (1965)
Month to date precipitation 0.69  
Year to date precipitation 3.64  
Sea Level Pressure  
Sea Level Pressure 30.08 in    
Wind  
Wind Speed 2 mph (East)    
Max Wind Speed 8 mph    
Max Gust Speed -    
Visibility 8 miles    
Events      
T = Trace of Precipitation, MM = Missing Value Source: NWS Daily Summary

Daily Weather History Graph

Daily Weather History Graph

Search for Another Location

Airport:

Trip Planner

Search our weather history database for the weather conditions in past years. The results will help you decide how hot, cold, wet, or windy it might be!

Date:

Astronomy

Feb. 07, 2013 Rise Set
Actual Time 7:29 AM EST 5:57 PM EST
Civil Twilight 7:01 AM EST 6:24 PM EST
Nautical Twilight 6:30 AM EST 6:56 PM EST
Astronomical Twilight 5:58 AM EST 7:27 PM EST
Moon 5:07 AM EST (2/7) 3:20 PM EST (2/7)
Length of Visible Light 11h 23m
Length of Day
10h 27m
Waning Crescent, 9% of the Moon is Illuminated
Feb 7
Waning Crescent
Feb 10
New
Feb 17
First Quarter
Feb 25
Full
Mar 4
Last Quarter

Hourly Weather History & Observations

Time (EST) Temp. Windchill Dew Point Humidity Pressure Visibility Wind Dir Wind Speed Gust Speed Precip Events Conditions
12:15 AM 22.5 °F - 20.7 °F 93% 30.27 in 5.0 mi Calm Calm - N/A   Clear
12:35 AM 23.9 °F - 22.1 °F 93% 30.25 in 5.0 mi Calm Calm - N/A   Clear
12:55 AM 24.4 °F - 22.1 °F 91% 30.24 in 5.0 mi Calm Calm - N/A   Clear
1:15 AM 24.6 °F - 22.3 °F 91% 30.23 in 5.0 mi Calm Calm - N/A   Clear
1:55 AM 25.2 °F - 23.0 °F 91% 30.22 in 5.0 mi Calm Calm - N/A   Clear
2:15 AM 26.6 °F - 23.9 °F 90% 30.20 in 7.0 mi Calm Calm - N/A   Clear
2:35 AM 26.6 °F - 23.9 °F 90% 30.20 in 5.0 mi Calm Calm - N/A   Clear
2:55 AM 26.4 °F - 24.1 °F 91% 30.19 in 5.0 mi Calm Calm - N/A   Clear
3:15 AM 27.3 °F - 24.8 °F 90% 30.19 in 5.0 mi Calm Calm - N/A   Clear
3:35 AM 27.9 °F - 25.3 °F 90% 30.20 in 5.0 mi Calm Calm - N/A   Mostly Cloudy
3:55 AM 28.0 °F - 25.5 °F 90% 30.20 in 5.0 mi Calm Calm - N/A   Mostly Cloudy
4:15 AM 28.0 °F - 25.7 °F 91% 30.20 in 5.0 mi Calm Calm - N/A   Mostly Cloudy
4:35 AM 28.4 °F - 26.1 °F 91% 30.20 in 5.0 mi Calm Calm - N/A   Overcast
4:55 AM 29.3 °F 25.6 °F 26.1 °F 88% 30.21 in 7.0 mi NNE 3.5 mph - N/A   Overcast
5:15 AM 29.7 °F 26.1 °F 26.1 °F 86% 30.21 in 7.0 mi NNE 3.5 mph - N/A   Overcast
5:35 AM 29.8 °F - 26.4 °F 87% 30.21 in 7.0 mi Calm Calm - N/A   Overcast
5:55 AM 30.0 °F 25.2 °F 26.4 °F 86% 30.21 in 7.0 mi NE 4.6 mph - N/A   Overcast
6:15 AM 29.8 °F 23.9 °F 26.6 °F 88% 30.21 in 7.0 mi ENE 5.8 mph - N/A   Overcast
6:55 AM 30.0 °F 24.1 °F 26.6 °F 87% 30.18 in 7.0 mi ENE 5.8 mph - N/A   Overcast
7:15 AM 31.1 °F 26.4 °F 27.3 °F 86% 30.18 in 7.0 mi East 4.6 mph - N/A   Overcast
7:35 AM 31.3 °F 25.6 °F 27.7 °F 87% 30.20 in 7.0 mi West 5.8 mph - N/A   Overcast
7:55 AM 31.1 °F - 27.5 °F 87% 30.20 in 7.0 mi Calm Calm - N/A   Overcast
8:15 AM 31.1 °F - 27.5 °F 87% 30.20 in 7.0 mi Calm Calm - N/A   Overcast
8:35 AM 31.5 °F 26.8 °F 27.5 °F 85% 30.20 in 7.0 mi ENE 4.6 mph - N/A   Mostly Cloudy
8:55 AM 31.8 °F 25.4 °F 27.9 °F 85% 30.19 in 7.0 mi ENE 6.9 mph - N/A   Mostly Cloudy
9:15 AM 31.8 °F 25.4 °F 27.5 °F 84% 30.18 in 7.0 mi ENE 6.9 mph - N/A   Overcast
9:35 AM 32.0 °F 26.4 °F 27.9 °F 85% 30.18 in 7.0 mi NE 5.8 mph - N/A   Mostly Cloudy
9:55 AM 32.4 °F 26.9 °F 28.2 °F 85% 30.17 in 7.0 mi NE 5.8 mph - N/A   Mostly Cloudy
10:15 AM 33.1 °F 28.7 °F 28.4 °F 83% 30.17 in 7.0 mi NE 4.6 mph - N/A   Scattered Clouds
10:35 AM 34.7 °F 31.8 °F 28.8 °F 79% 30.17 in 10.0 mi NE 3.5 mph - N/A   Clear
10:55 AM 37.0 °F 32.4 °F 30.4 °F 77% 30.15 in 10.0 mi ENE 5.8 mph - N/A   Clear
11:15 AM 39.7 °F 34.3 °F 29.5 °F 67% 30.14 in 10.0 mi ESE 8.1 mph - N/A   Scattered Clouds
11:35 AM 43.3 °F - 28.9 °F 57% 30.14 in 10.0 mi Calm Calm - N/A   Overcast
11:55 AM 45.0 °F 42.6 °F 29.7 °F 55% 30.12 in 10.0 mi SSE 4.6 mph - N/A   Mostly Cloudy
12:15 PM 46.6 °F - 29.7 °F 52% 30.11 in 10.0 mi SE 4.6 mph - N/A   Scattered Clouds
12:35 PM 46.8 °F - 29.5 °F 51% 30.09 in 10.0 mi Calm Calm - N/A   Overcast
12:55 PM 49.3 °F - 30.6 °F 49% 30.07 in 10.0 mi Calm Calm - N/A   Mostly Cloudy
1:15 PM 50.5 °F - 31.1 °F 47% 30.06 in 10.0 mi South 5.8 mph - N/A   Mostly Cloudy
1:35 PM 50.9 °F - 30.4 °F 45% 30.04 in 10.0 mi SSE 5.8 mph - N/A   Scattered Clouds
1:55 PM 51.6 °F - 30.4 °F 44% 30.04 in 10.0 mi Calm Calm - N/A   Clear
2:15 PM 52.5 °F - 30.7 °F 43% 30.03 in 10.0 mi Calm Calm - N/A   Scattered Clouds
2:35 PM 52.3 °F - 30.7 °F 44% 30.02 in 10.0 mi Calm Calm - N/A   Scattered Clouds
2:55 PM 53.6 °F - 30.4 °F 41% 30.01 in 10.0 mi SSE 4.6 mph - N/A   Scattered Clouds
3:15 PM 54.3 °F - 32.0 °F 43% 30.00 in 10.0 mi East 4.6 mph - N/A   Clear
3:35 PM 54.5 °F - 31.1 °F 41% 30.00 in 10.0 mi ESE 4.6 mph - N/A   Clear
3:55 PM 54.5 °F - 30.9 °F 41% 29.99 in 10.0 mi SE 3.5 mph - N/A   Clear
4:15 PM 54.5 °F - 31.5 °F 42% 29.98 in 10.0 mi SE 3.5 mph - N/A   Clear
4:35 PM 54.5 °F - 31.5 °F 42% 29.97 in 10.0 mi ESE 3.5 mph - N/A   Clear
4:55 PM 54.1 °F - 31.5 °F 42% 29.97 in 10.0 mi ESE 3.5 mph - N/A   Clear
5:15 PM 52.3 °F - 33.1 °F 48% 29.97 in 10.0 mi Calm Calm - N/A   Clear
5:35 PM 50.4 °F - 34.7 °F 55% 29.98 in 10.0 mi Calm Calm - N/A   Clear
5:55 PM 47.3 °F - 33.4 °F 59% 29.98 in 10.0 mi NE 8.1 mph - N/A   Clear
6:15 PM 43.9 °F 39.3 °F 32.9 °F 65% 29.97 in 10.0 mi ENE 8.1 mph - N/A   Clear
6:35 PM 43.0 °F 41.3 °F 32.5 °F 67% 29.97 in 10.0 mi NE 3.5 mph - N/A   Clear
6:55 PM 42.6 °F 40.9 °F 32.0 °F 66% 29.97 in 10.0 mi NE 3.5 mph - N/A   Clear
7:15 PM 41.2 °F - 32.0 °F 70% 29.96 in 10.0 mi Calm Calm - N/A   Clear
7:35 PM 40.5 °F - 31.8 °F 71% 29.96 in 10.0 mi Calm Calm - N/A   Clear
7:55 PM 39.9 °F - 31.8 °F 73% 29.95 in 10.0 mi Calm Calm - N/A   Clear
8:15 PM 37.6 °F - 31.5 °F 79% 29.94 in 10.0 mi Calm Calm - N/A   Clear
8:35 PM 39.0 °F - 31.6 °F 75% 29.93 in 10.0 mi Calm Calm - N/A   Clear
8:55 PM 46.0 °F 42.5 °F 32.5 °F 59% 29.93 in 10.0 mi SE 6.9 mph - N/A   Clear
9:15 PM 45.5 °F 42.5 °F 32.5 °F 61% 29.92 in 10.0 mi SE 5.8 mph - N/A   Clear
9:35 PM 45.1 °F 40.8 °F 32.7 °F 62% 29.92 in 10.0 mi SSE 8.1 mph - N/A   Clear
9:55 PM 45.0 °F 41.8 °F 32.9 °F 63% 29.93 in 10.0 mi SSE 5.8 mph - N/A   Clear
10:15 PM 43.7 °F 40.3 °F 32.5 °F 65% 29.92 in 10.0 mi SSE 5.8 mph - N/A   Clear
10:35 PM 44.1 °F 40.1 °F 32.9 °F 65% 29.91 in 10.0 mi SSE 6.9 mph - N/A   Clear
10:55 PM 43.5 °F 39.4 °F 32.9 °F 66% 29.90 in 10.0 mi SSE 6.9 mph - N/A   Clear
11:15 PM 43.3 °F 38.6 °F 33.1 °F 67% 29.90 in 10.0 mi SSE 8.1 mph - N/A   Clear
11:35 PM 43.2 °F 38.4 °F 33.3 °F 68% 29.89 in 10.0 mi SSE 8.1 mph - N/A   Clear
11:55 PM 42.8 °F 38.6 °F 33.3 °F 69% 29.89 in 10.0 mi SSE 6.9 mph - N/A   Clear